Regional Weather Roundup
Issued by NWS Boston, MA

Home | Current Version | Previous Version | Text Only | Print | Product List | Glossary On
Versions: 1 2 3 4 5 6 7 8 9 10 11 12 13 14 15 16 17 18 19 20 21 22 23 24 25 26 27 28 29 30 31 32 33 34 35 36 37 38 39 40 41 42 43 44 45 46 47 48 49 50
000
ASUS41 KBOX 270710
RWRBOX

REGIONAL WEATHER ROUNDUP
NATIONAL WEATHER SERVICE BOSTON/NORTON MA
300 AM EDT FRI APR 27 2018

NOTE:  "FAIR" INDICATES FEW OR NO CLOUDS BELOW 12,000 FEET WITH NO
SIGNIFICANT WEATHER AND/OR OBSTRUCTIONS TO VISIBILITY.

MAZALL-270800-
EASTERN MASSACHUSETTS

CITY           SKY/WX    TMP DP  RH WIND       PRES   REMARKS
BOSTON         FAIR      51  41  68 W8        29.87R
BEVERLY        FAIR      48  41  76 W5        29.85R
LAWRENCE       FAIR      50  41  71 SW6       29.87R
BEDFORD        FAIR      45  40  82 CALM      29.86R
BLUE HILL        N/A     46  41  82 W10       29.86R
NORWOOD        FAIR      49  43  80 S5        29.88R
MARSHFIELD     FAIR      50  43  76 VRB5      29.88R
PLYMOUTH       FAIR      49  41  74 W5        29.88R
TAUNTON        FAIR      47  41  80 CALM      29.88R
NEW BEDFORD    FAIR      46  41  82 CALM      29.87S
$$

MAZALL-270800-
CAPE COD AND THE ISLANDS

CITY           SKY/WX    TMP DP  RH WIND       PRES   REMARKS
FALMOUTH         N/A     45  41  87 CALM      29.89
HYANNIS        FAIR      44  41  89 CALM      29.87R
CHATHAM        FAIR      46  43  89 CALM      29.89R
PROVINCETOWN   FAIR      48  43  82 W8        29.89R
NANTUCKET      FAIR      44  44 100 SW8       29.90R FOG
MARTHAS VNYRD  FAIR      40  39  97 S3        29.89R
$$

MAZALL-270800-
CENTRAL AND WESTERN MASSACHUSETTS

CITY           SKY/WX    TMP DP  RH WIND       PRES   REMARKS
WORCESTER      FAIR      44  37  76 W7        29.86S
FITCHBURG      FAIR      48  42  80 NW3       29.87R
ORANGE         FAIR      39  39 100 S3        29.88R
SPRINGFIELD    FAIR      39  37  92 E3        29.86F
WESTFIELD      FAIR      41  41 100 CALM      29.87F
NORTH ADAMS    FAIR      38  35  89 CALM      29.87F
PITTSFIELD     FAIR      39  35  86 SW7       29.86F
$$

RIZALL-270800-
RHODE ISLAND

CITY           SKY/WX    TMP DP  RH WIND       PRES   REMARKS
PROVIDENCE     FAIR      51  42  71 W3        29.89R
NEWPORT        FAIR      47  42  83 CALM      29.88F
SMITHFIELD     FAIR      46  40  79 MISG      29.87F
WESTERLY       FAIR      46  43  89 CALM      29.90S
$$

CTZALL-270800-
CONNECTICUT

CITY           SKY/WX    TMP DP  RH WIND       PRES   REMARKS
BRADLEY INTL   MOCLDY    45  41  86 W3        29.88F
HARTFORD       FAIR      45  42  89 CALM      29.88F
BRIDGEPORT     FAIR      52  43  71 NE3       29.88S
DANBURY        FAIR      43  40  89 CALM      29.89S
GROTON         FAIR      46  44  93 CALM      29.89S
NEW HAVEN      FAIR      48  42  80 CALM      29.88F
CHESTER        FAIR      50  41  71 CALM      29.88F
MERIDEN        FAIR      45  42  89 CALM      29.89R
WILLIMANTIC    FAIR      45  41  86 CALM      29.89S
OXFORD         FAIR      47  41  80 E3        29.88F
$$

MEZ002-015-021-024-NHZ003-005-008-011-012-014-VTZ005-008-270800-
NORTHERN NEW ENGLAND

CITY           SKY/WX    TMP DP  RH WIND       PRES   REMARKS
PORTLAND ME    FAIR      45  40  82 VRB5      29.81R
BANGOR ME      FAIR      48  43  82 W6        29.75R
CONCORD NH     FAIR      44  39  82 W8        29.85R
MANCHESTER NH  FAIR      49  40  71 S5        29.84S
NASHUA NH      FAIR      43  41  93 CALM      29.86S
PORTSMOUTH NH  PTCLDY    47  40  77 W9        29.82R
JAFFREY NH     FAIR      42  41  96 CALM      29.86S
KEENE NH       FAIR      38  36  92 CALM      29.87S
BURLINGTON VT  CLOUDY    49  42  77 S8        29.84R
MT. WASHINGTON FRZ DRZL  28  28 100 W25         N/A  VSB 1/16WCI  14
$$

NYZ052-076-270800-
EASTERN NEW YORK

CITY           SKY/WX    TMP DP  RH WIND       PRES   REMARKS
ALBANY         MOCLDY    39  36  89 CALM      29.88F
NEW YORK CITY  MOCLDY    56  42  59 E5        29.85F
$$

ANZALL-270800-
MARINE OBSERVATIONS

STATION/POSITION TIME  TEMP    WIND        PRES    VSBY  WAVE
                       AIR SEA DIR/SP/G                  HT/PER
                 (UTC) (F)     (DEG/KT/KT) (MB)    (MI)  (FT/S)
BOSTON BUOY      0650   48 46  240/  8/ 10 1011.7R         4/11
BUZZARDS BAY     0600   52     260/ 14/ 14 1012.6R
NANTUCKET SOUND  0550   47 46  230/  8/ 10 1011.7          1/11
MASS BAY-STELLWA 0604   46 44              1009.4R         6/11
ISLE OF SHOALS   0700   47     250/ 12/ 13 1010.1R
S OF BLOCK IS    0643      45                N/A           8/10
$$

......................KEY.........................
  SKY/WX - SKY CONDITION/PRESENT WEATHER
  TMP    - TEMPERATURE IN FAHRENHEIT
  DWPT   - DEWPOINT IN FAHRENHEIT
  RH     - RELATIVE HUMIDITY IN PERCENT
  WIND   - DIRECTION AND SPEED IN MPH
  PRES   - MEAN SEA LEVEL PRESSURE IN INCHES OF HG
  WCI    - WIND CHILL INDEX
  VSB    - VISIBILITY IN MILES
  HX     - HEAT INDEX
  TC     - TEMPERATURE IN CELSIUS
  VRB    - VARIABLE WIND DIRECTION
  N/A    - NOT AVAILABLE



USA.gov is the U.S. government's official web portal to all federal, state and local government web resources and services.